When you browse on this site, cookies collect data to enhance your experience and personalize the content and advertising you see.
Visit our Privacy Policy to learn more. By continuing to use the site, you agree to this use of cookies and data.
  • In Austria
  • List of Countries
  • For 7 days
  • Water Temperature
  • Weather Map
  • News
  • Weather Widgets
  • user-avatar
    Login

    Hourly Weather Algiers

    Today, 15 December, Sunday

    Time Temperature Precipitation Wind Pressure Humidity
    00:00 +15°C° 0 mm 1 mps 750 mmHg 71%
    01:00 +15°C° 0 mm 1 mps 750 mmHg 69%
    02:00 +15°C° 0 mm 1 mps 750 mmHg 67%
    03:00 +15°C° 0 mm 1 mps 750 mmHg 65%
    04:00 +15°C° 0 mm 1 mps 750 mmHg 64%
    05:00 +14°C° 0 mm 1 mps 750 mmHg 63%
    06:00 +14°C° 0 mm 1 mps 749 mmHg 62%
    07:00 +15°C° 0 mm 1 mps 750 mmHg 60%
    08:00 +16°C° 0 mm 1 mps 750 mmHg 58%
    09:00 +18°C° 0 mm 1 mps 750 mmHg 56%
    10:00 +19°C° 0 mm 1 mps 750 mmHg 53%
    11:00 +20°C° 0 mm 1 mps 750 mmHg 49%
    12:00 +20°C° 0 mm 2 mps 749 mmHg 46%
    13:00 +19°C° 0 mm 2 mps 749 mmHg 51%
    14:00 +19°C° 0 mm 2 mps 749 mmHg 56%
    15:00 +18°C° 0 mm 2 mps 748 mmHg 61%
    16:00 +18°C° 0 mm 3 mps 748 mmHg 63%
    17:00 +17°C° 0 mm 3 mps 748 mmHg 65%
    18:00 +16°C° 0 mm 3 mps 748 mmHg 68%
    19:00 +16°C° 0 mm 3 mps 748 mmHg 66%
    20:00 +16°C° 0 mm 3 mps 748 mmHg 64%
    21:00 +15°C° 0 mm 4 mps 748 mmHg 62%
    22:00 +15°C° 0 mm 4 mps 748 mmHg 60%
    23:00 +15°C° 0 mm 4 mps 747 mmHg 58%

    Tomorrow, 16 December, Monday

    Time Temperature Precipitation Wind Pressure Humidity
    00:00 +15°C° 0 mm 5 mps 747 mmHg 56%
    01:00 +15°C° 0 mm 5 mps 747 mmHg 56%
    02:00 +15°C° 0 mm 5 mps 746 mmHg 55%
    03:00 +15°C° 0 mm 6 mps 746 mmHg 54%
    04:00 +15°C° 0 mm 6 mps 746 mmHg 54%
    05:00 +15°C° 0 mm 7 mps 746 mmHg 54%
    06:00 +15°C° 0 mm 7 mps 746 mmHg 54%
    07:00 +16°C° 0 mm 7 mps 746 mmHg 54%
    08:00 +16°C° 0 mm 7 mps 746 mmHg 53%
    09:00 +17°C° 0 mm 8 mps 746 mmHg 52%
    10:00 +17°C° 0 mm 8 mps 745 mmHg 49%
    11:00 +18°C° 0 mm 8 mps 744 mmHg 47%
    12:00 +19°C° 0 mm 9 mps 744 mmHg 44%
    13:00 +20°C° 0 mm 8 mps 743 mmHg 43%
    14:00 +20°C° 0 mm 8 mps 742 mmHg 42%
    15:00 +20°C° 0 mm 8 mps 742 mmHg 41%
    16:00 +20°C° 0 mm 8 mps 742 mmHg 41%
    17:00 +18°C° 0 mm 8 mps 742 mmHg 42%
    18:00 +17°C° 0 mm 8 mps 742 mmHg 42%
    19:00 +17°C° 0 mm 8 mps 742 mmHg 44%
    20:00 +17°C° 0 mm 8 mps 742 mmHg 46%
    21:00 +17°C° 0 mm 8 mps 742 mmHg 47%
    22:00 +17°C° 0 mm 9 mps 741 mmHg 49%
    23:00 +16°C° 0 mm 9 mps 741 mmHg 50%

    Day after tomorrow, 17 December, Tuesday

    Time Temperature Precipitation Wind Pressure Humidity
    00:00 +16°C° 0 mm 9 mps 741 mmHg 51%
    01:00 +16°C° 0 mm 9 mps 741 mmHg 52%
    02:00 +16°C° 0 mm 9 mps 740 mmHg 52%
    03:00 +15°C° 0 mm 8 mps 740 mmHg 53%
    04:00 +15°C° 0 mm 6 mps 740 mmHg 57%
    05:00 +14°C° 0 mm 5 mps 740 mmHg 60%
    06:00 +13°C° 0 mm 3 mps 739 mmHg 64%
    07:00 +15°C° 0 mm 2 mps 740 mmHg 64%
    08:00 +15°C° 0 mm 2 mps 740 mmHg 64%
    09:00 +16°C° 0 mm 2 mps 740 mmHg 63%
    10:00 +16°C° 0.1 mm 3 mps 740 mmHg 63%
    11:00 +16°C° 0.1 mm 3 mps 740 mmHg 62%
    12:00 +15°C° 0.1 mm 4 mps 740 mmHg 62%
    13:00 +14°C° 2.1 mm 5 mps 740 mmHg 70%
    14:00 +11°C° 2.1 mm 7 mps 740 mmHg 78%
    15:00 +10°C° 2.1 mm 8 mps 740 mmHg 86%
    16:00 +10°C° 1.8 mm 7 mps 740 mmHg 81%
    17:00 +10°C° 1.8 mm 5 mps 741 mmHg 75%
    18:00 +11°C° 1.8 mm 4 mps 741 mmHg 70%
    19:00 +10°C° 0.3 mm 5 mps 742 mmHg 71%
    20:00 +10°C° 0.3 mm 6 mps 742 mmHg 73%
    21:00 +10°C° 0.3 mm 7 mps 743 mmHg 74%
    22:00 +10°C° 0.3 mm 8 mps 743 mmHg 73%
    23:00 +10°C° 0.3 mm 9 mps 743 mmHg 72%

    18 December, Wednesday

    Time Temperature Precipitation Wind Pressure Humidity
    00:00 +9°C° 0.3 mm 10 mps 743 mmHg 71%
    01:00 +9°C° 0.2 mm 11 mps 743 mmHg 72%
    02:00 +9°C° 0.2 mm 11 mps 743 mmHg 72%
    03:00 +9°C° 0.2 mm 12 mps 743 mmHg 73%
    04:00 +9°C° 0.2 mm 11 mps 743 mmHg 73%
    05:00 +9°C° 0.2 mm 11 mps 743 mmHg 74%
    06:00 +9°C° 0.2 mm 11 mps 743 mmHg 75%
    07:00 +9°C° 0.6 mm 12 mps 744 mmHg 76%
    08:00 +9°C° 0.6 mm 12 mps 744 mmHg 78%
    09:00 +9°C° 0.6 mm 12 mps 745 mmHg 80%
    10:00 +10°C° 0.3 mm 12 mps 745 mmHg 75%
    11:00 +10°C° 0.3 mm 13 mps 746 mmHg 69%
    12:00 +12°C° 0.3 mm 13 mps 746 mmHg 64%
    13:00 +12°C° 0 mm 13 mps 746 mmHg 63%
    14:00 +12°C° 0 mm 12 mps 746 mmHg 61%
    15:00 +12°C° 0 mm 12 mps 747 mmHg 59%
    16:00 +12°C° 0 mm 11 mps 747 mmHg 60%
    17:00 +11°C° 0 mm 10 mps 748 mmHg 61%
    18:00 +11°C° 0 mm 8 mps 748 mmHg 62%
    19:00 +10°C° 0 mm 8 mps 749 mmHg 64%
    20:00 +10°C° 0 mm 7 mps 749 mmHg 65%
    21:00 +10°C° 0 mm 6 mps 750 mmHg 66%
    22:00 +10°C° 0 mm 6 mps 750 mmHg 67%
    23:00 +10°C° 0 mm 5 mps 750 mmHg 69%

    19 December, Thursday

    Time Temperature Precipitation Wind Pressure Humidity
    00:00 +10°C° 0 mm 5 mps 750 mmHg 70%
    01:00 +10°C° 0 mm 5 mps 750 mmHg 72%
    02:00 +10°C° 0 mm 5 mps 750 mmHg 74%
    03:00 +10°C° 0 mm 5 mps 750 mmHg 75%
    04:00 +12°C° 0 mm 5 mps 750 mmHg 75%
    05:00 +12°C° 0 mm 5 mps 749 mmHg 75%
    06:00 +12°C° 0 mm 4 mps 749 mmHg 74%
    07:00 +13°C° 0 mm 4 mps 749 mmHg 71%
    08:00 +14°C° 0 mm 4 mps 749 mmHg 69%
    09:00 +15°C° 0 mm 4 mps 749 mmHg 66%
    10:00 +17°C° 0 mm 4 mps 749 mmHg 61%
    11:00 +18°C° 0 mm 4 mps 749 mmHg 57%
    12:00 +20°C° 0 mm 4 mps 749 mmHg 53%
    13:00 +20°C° 0 mm 4 mps 749 mmHg 52%
    14:00 +20°C° 0 mm 4 mps 748 mmHg 52%
    15:00 +20°C° 0 mm 4 mps 748 mmHg 51%
    16:00 +19°C° 0 mm 4 mps 748 mmHg 53%
    17:00 +17°C° 0 mm 5 mps 748 mmHg 54%
    18:00 +16°C° 0 mm 5 mps 749 mmHg 56%
    19:00 +17°C° 0 mm 4 mps 749 mmHg 58%
    20:00 +15°C° 0 mm 4 mps 749 mmHg 60%
    21:00 +15°C° 0 mm 4 mps 749 mmHg 62%
    22:00 +15°C° 0 mm 4 mps 748 mmHg 61%
    23:00 +15°C° 0 mm 4 mps 748 mmHg 60%

    20 December, Friday

    Time Temperature Precipitation Wind Pressure Humidity
    00:00 +15°C° 0 mm 4 mps 748 mmHg 58%
    01:00 +15°C° 0 mm 5 mps 747 mmHg 58%
    02:00 +15°C° 0 mm 5 mps 746 mmHg 57%
    03:00 +15°C° 0 mm 6 mps 746 mmHg 57%
    04:00 +15°C° 0 mm 6 mps 745 mmHg 56%
    05:00 +15°C° 0 mm 6 mps 745 mmHg 54%
    06:00 +16°C° 0 mm 6 mps 745 mmHg 53%
    07:00 +16°C° 0 mm 7 mps 744 mmHg 51%
    08:00 +16°C° 0 mm 7 mps 744 mmHg 49%
    09:00 +17°C° 0 mm 7 mps 744 mmHg 47%
    10:00 +18°C° 0 mm 8 mps 743 mmHg 47%
    11:00 +18°C° 0 mm 8 mps 742 mmHg 47%
    12:00 +19°C° 0 mm 9 mps 741 mmHg 47%
    13:00 +18°C° 0.9 mm 10 mps 741 mmHg 56%
    14:00 +17°C° 0.9 mm 12 mps 741 mmHg 66%
    15:00 +15°C° 0.9 mm 13 mps 741 mmHg 75%
    16:00 +15°C° 2 mm 12 mps 742 mmHg 78%
    17:00 +16°C° 2 mm 11 mps 742 mmHg 81%
    18:00 +16°C° 2 mm 10 mps 743 mmHg 84%
    19:00 +16°C° 0.2 mm 9 mps 743 mmHg 81%
    20:00 +16°C° 0.2 mm 9 mps 744 mmHg 77%
    21:00 +16°C° 0.2 mm 8 mps 744 mmHg 73%
    22:00 +15°C° 0 mm 8 mps 745 mmHg 72%
    23:00 +15°C° 0 mm 7 mps 745 mmHg 72%
    Show more